Theta_e
304 305 305 305 305 305 304 305 305 305 306 308 309 310 311 311 308 305 304 309 306 300 302 303 302 297 297 296 292 297 296 294 293 288 289 293 293 295 293 295 292 291 289 289 290 287 285 302 301 294 301 304 303 303
304 304 304 304 304 304 304 304 304 304 305 306 307 308 310 311 308 306 302 308 307 301 301 308 307 307 303 301 298 298 296 295 297 290 290 293 294 296 294 289 298 291 296 293 294 295 303 305 303 306 305 303 303 302
303 304 304 304 304 304 304 303 304 304 304 304 305 307 308 311 309 306 302 303 301 296 298 301 301 307 309 307 307 296 297 299 299 300 293 292 292 297 292 293 294 297 302 298 297 299 300 302 305 305 306 303 303 303
303 303 303 303 304 304 304 304 304 304 305 305 305 305 308 310 310 307 301 302 302 296 290 298 307 305 309 308 305 304 301 302 301 297 293 293 293 300 294 297 295 297 300 297 298 300 301 302 303 304 304 304 302 303
303 303 303 303 303 303 304 304 304 304 305 305 305 305 307 310 310 305 306 305 305 298 291 294 303 306 307 306 304 303 301 298 294 291 292 294 298 297 298 297 294 298 297 295 295 301 301 302 304 305 302 301 303 302
303 303 303 303 303 303 303 304 304 304 305 305 306 306 306 308 307 302 296 303 304 302 293 289 302 302 303 303 302 300 300 296 295 292 296 298 303 298 294 292 298 299 301 304 299 302 303 304 304 304 301 302 303 302
303 303 303 303 303 303 303 303 304 304 305 305 306 306 305 307 305 299 298 304 305 303 296 291 294 299 302 303 300 298 298 295 294 293 295 296 299 298 295 292 297 300 301 301 303 303 301 302 300 301 302 303 302 302
302 303 303 303 303 303 303 303 304 304 305 305 307 306 306 305 303 299 303 304 306 300 298 290 291 294 303 295 292 297 294 294 293 294 296 297 299 298 293 298 300 301 301 300 301 302 301 301 301 301 302 301 299 300
301 302 303 304 304 304 303 303 303 304 305 306 306 306 303 301 297 299 304 304 303 299 291 289 289 289 301 297 297 295 296 289 298 292 293 297 295 292 297 298 298 300 300 299 301 300 299 298 299 300 299 299 299 298
301 302 303 304 304 304 304 304 304 304 305 305 304 297 292 298 305 305 298 293 293 293 291 288 295 290 297 298 292 292 295 291 289 293 298 292 293 300 301 302 302 301 301 301 297 296 297 297 298 298 298 300 299 298
301 302 303 304 304 304 304 304 304 304 305 300 295 291 298 305 299 295 290 289 289 287 292 292 293 290 299 291 292 294 289 291 288 292 292 291 292 298 300 300 302 301 301 299 299 299 299 299 298 297 298 299 299 299
300 301 303 304 304 304 304 304 304 303 301 299 296 299 299 293 292 288 287 290 288 287 293 292 292 294 295 298 293 292 289 289 287 297 292 290 295 299 299 299 301 300 299 298 299 298 298 298 298 298 298 299 298 298
300 301 303 304 304 304 304 303 304 303 302 299 294 290 290 290 285 284 283 287 288 293 294 295 292 292 293 293 291 289 287 290 298 291 291 296 298 299 301 299 299 299 299 298 298 298 297 297 299 299 299 299 298 297
300 301 303 303 303 303 304 304 304 302 298 291 288 285 288 286 289 291 292 294 295 296 295 293 290 289 291 289 289 286 291 295 289 288 289 297 298 298 299 300 298 297 297 297 297 296 296 296 298 299 299 299 297 296
300 302 302 302 303 304 304 303 303 302 296 289 291 287 290 295 296 296 298 297 296 296 293 291 292 291 289 287 291 291 289 287 290 291 296 298 299 298 299 298 298 297 297 297 297 296 295 296 297 296 296 297 296 295
300 301 301 303 303 303 303 303 300 300 295 292 292 291 295 293 294 296 296 295 297 296 295 293 289 287 288 290 290 289 288 287 293 298 300 300 299 300 299 299 298 298 298 297 297 296 296 294 295 296 296 296 295 295
299 298 302 302 303 302 302 298 296 292 290 289 290 296 296 297 295 296 298 297 298 294 289 291 287 289 295 290 289 296 292 296 298 300 301 300 300 299 299 298 298 297 297 297 296 296 296 296 296 295 294 295 295 294
297 302 302 302 302 299 298 297 293 291 289 291 293 297 298 299 297 297 299 297 295 292 291 290 295 291 289 288 291 296 298 300 301 301 300 300 300 300 300 299 298 297 297 297 296 296 296 295 295 294 295 296 295 294
300 302 302 302 300 296 292 293 293 289 292 296 298 299 300 299 300 299 300 300 298 297 294 295 292 292 293 296 298 298 300 300 299 299 299 300 300 300 299 299 298 298 297 297 297 296 296 296 295 295 294 294 294 294
301 302 302 301 301 294 290 291 295 292 292 297 299 298 298 298 299 298 298 300 295 293 291 292 294 298 297 300 302 301 302 302 299 297 296 298 299 300 299 298 298 298 298 298 296 289 298 297 296 296 294 294 294 293
300 301 300 301 297 295 294 293 291 293 295 294 297 297 295 297 295 295 296 298 292 290 293 297 299 300 302 304 306 304 303 301 299 297 297 296 299 300 299 299 299 299 298 297 297 294 293 295 295 296 295 294 295 295
299 301 298 299 294 293 292 296 294 296 294 295 295 295 292 293 293 294 297 292 291 293 298 299 300 301 301 301 302 304 303 301 300 298 295 296 298 297 297 298 298 296 296 296 296 296 295 295 294 295 295 294 294 295
300 299 296 295 290 290 291 298 291 292 289 292 295 292 292 294 296 300 292 293 295 300 301 301 301 302 302 303 303 302 301 300 298 298 298 299 299 299 298 298 298 297 296 296 297 296 295 289 293 294 294 294 294 294
299 294 291 291 292 288 294 291 294 291 291 291 289 289 292 294 297 292 289 291 295 299 300 301 300 300 301 302 300 300 300 301 299 298 299 298 297 297 299 298 298 298 297 297 297 297 296 295 289 294 293 292 291 291
289 289 290 287 292 289 288 289 289 289 288 290 289 290 292 295 289 289 288 290 294 296 298 300 301 301 298 299 300 300 303 301 299 297 298 299 298 298 298 298 298 298 300 299 296 295 294 294 294 293 293 291 289 289
287 290 288 289 289 289 289 287 288 288 290 289 291 292 295 290 288 286 288 287 293 296 298 299 298 299 299 299 299 300 301 302 301 298 299 300 299 298 296 295 295 295 298 297 296 294 293 293 293 292 291 290 284 289
284 287 292 296 294 292 291 292 295 292 288 289 292 291 289 287 286 286 289 290 292 297 301 302 301 300 299 299 300 302 303 303 302 300 301 301 300 300 300 297 295 296 297 296 295 294 292 292 291 290 290 290 290 289
291 292 288 292 292 293 290 291 290 289 291 295 295 288 286 285 283 285 288 290 292 299 300 301 301 301 299 298 299 299 299 300 300 299 299 298 298 298 298 296 294 286 292 292 293 292 291 290 289 289 288 288 288 288
290 293 292 288 290 292 291 290 289 290 291 292 288 287 286 287 286 287 290 290 293 298 296 296 296 298 298 298 299 299 298 297 296 294 293 293 294 294 296 295 295 295 294 291 281 285 286 287 286 286 286 287 287 286
290 295 291 290 288 287 288 290 289 290 290 289 290 289 288 287 288 290 291 293 291 291 294 295 297 296 295 294 294 295 298 299 300 298 295 292 293 295 295 295 294 294 294 293 292 290 282 285 286 287 285 285 284 283
294 292 289 289 287 288 288 290 290 290 290 290 293 290 287 287 289 290 291 294 293 291 291 291 292 294 293 292 293 292 290 293 294 295 295 295 295 294 294 293 294 293 292 290 289 287 285 285 284 283 282 281 281 281
291 290 289 286 286 288 291 290 289 289 289 289 287 289 288 289 285 288 290 292 293 291 289 292 292 292 294 293 293 293 289 293 294 294 293 293 293 293 293 292 291 290 288 286 285 284 282 282 281 280 279 279 279 279
288 289 289 288 287 288 290 291 289 288 289 288 288 289 288 287 283 286 291 292 292 291 292 293 293 293 293 292 291 290 288 288 283 281 282 281 281 285 289 288 287 286 285 285 284 283 280 279 279 278 277 276 276 276
Wind_Speed
13 13 12 12 11 11 10 11 11 12 11 11 11 12 10 7 12 5 2 5 4 5 12 10 8 6 6 4 5 4 6 2 2 3 3 6 4 2 3 7 5 9 9 9 11 6 10 4 6 4 11 12 15 17
13 13 12 12 11 11 11 10 11 11 11 11 12 12 12 8 15 9 2 2 4 4 7 13 13 16 15 13 3 4 2 4 2 2 1 5 5 3 3 2 1 5 9 3 5 3 3 1 4 6 5 11 14 17
15 14 12 11 11 11 11 10 11 11 10 10 11 12 12 11 16 12 2 4 1 2 8 9 6 8 7 12 11 4 3 4 4 4 2 3 7 3 3 3 4 6 8 4 6 2 2 2 4 1 9 13 14 15
15 15 13 14 13 12 12 13 12 12 11 10 11 12 13 13 15 13 3 3 1 1 3 3 4 6 8 10 12 14 1 1 4 1 3 4 5 6 4 4 8 6 1 6 9 7 6 3 5 7 12 12 14 15
14 14 13 13 13 12 12 12 13 11 12 13 11 12 12 9 12 7 2 3 1 2 3 7 17 12 12 15 10 12 9 7 2 2 3 4 4 6 6 7 8 9 8 5 6 7 6 8 9 10 10 13 14 17
13 12 12 13 13 13 12 12 13 12 13 13 12 12 11 12 15 4 2 6 6 2 2 5 1 5 6 5 7 10 6 3 1 3 4 5 10 6 4 5 5 3 4 8 4 6 8 9 7 9 12 13 15 16
14 13 12 13 13 13 13 13 13 13 12 11 13 10 9 9 8 3 0 4 11 6 4 5 3 5 5 4 3 3 7 2 3 3 5 5 3 4 4 9 3 5 3 3 5 6 8 9 10 11 10 12 13 14
13 14 13 13 13 13 12 12 13 12 10 12 11 8 11 11 9 2 2 10 7 1 4 3 5 5 8 4 3 3 4 3 4 3 3 6 2 4 6 7 6 1 2 4 4 4 7 7 8 9 10 12 14 14
15 15 15 14 13 12 12 12 12 10 10 11 6 8 4 0 2 3 11 9 2 2 3 3 4 3 4 3 1 4 4 4 5 4 3 3 4 6 6 3 4 5 1 5 7 8 4 7 8 10 12 13 14 15
15 16 16 14 13 12 11 11 10 10 13 7 5 3 2 2 14 16 4 3 2 2 2 4 6 5 2 5 3 1 3 4 4 5 5 4 7 6 0 4 5 4 3 6 8 8 9 8 9 10 11 11 12 13
15 15 16 13 13 12 11 10 9 10 3 2 2 2 1 9 1 3 3 4 4 5 6 6 7 7 2 5 1 2 1 2 3 4 5 4 4 6 3 4 3 3 3 4 4 5 6 7 9 10 10 11 12 14
15 16 16 13 11 10 10 9 8 3 1 5 6 3 2 1 3 4 4 5 6 4 6 4 4 3 0 2 2 2 2 3 4 8 5 4 5 8 7 5 3 2 4 4 4 5 6 7 9 9 9 10 11 13
15 16 14 11 9 8 8 7 4 17 8 3 2 3 4 3 5 5 7 5 4 4 4 5 3 2 2 2 2 2 4 4 3 4 4 3 9 8 7 5 5 3 3 3 5 5 7 7 8 9 8 9 11 11
14 18 12 10 8 9 9 7 16 9 3 3 4 5 5 6 6 5 4 5 5 3 2 1 2 3 2 4 2 4 5 4 4 5 2 8 8 8 7 5 4 5 4 4 5 6 8 8 8 9 9 9 9 10
13 15 9 11 12 10 9 8 14 2 2 3 3 4 7 3 2 5 3 1 1 2 2 1 3 3 3 3 4 4 4 4 5 1 7 8 10 9 7 6 7 5 5 6 7 7 8 8 8 9 9 9 10 10
12 13 5 7 10 9 5 13 3 1 1 2 4 5 3 3 1 3 4 4 5 2 2 2 2 3 4 3 5 6 3 2 3 3 9 9 9 8 8 7 7 6 6 7 7 7 8 8 8 9 9 9 10 11
9 3 3 4 9 10 10 2 2 3 3 3 4 6 7 2 6 4 3 3 3 3 2 2 4 5 3 3 4 2 2 4 5 7 8 9 9 9 9 8 7 6 6 6 7 7 7 7 7 8 10 10 10 11
3 1 5 8 6 5 1 2 1 3 4 5 6 5 5 4 3 2 4 3 3 3 2 3 3 4 2 2 2 4 4 6 6 8 8 8 9 9 7 8 7 7 6 6 6 6 6 6 7 7 8 9 8 11
3 2 4 12 4 3 2 3 3 3 6 4 6 6 3 2 3 2 6 6 3 1 3 3 4 3 3 3 1 4 5 7 7 7 8 9 8 8 8 7 7 6 6 5 4 5 5 6 5 6 7 7 7 8
6 2 11 8 4 1 2 2 2 4 3 3 5 4 3 3 0 3 4 5 2 2 3 4 4 1 3 1 4 2 5 7 8 8 8 8 7 8 6 6 6 5 5 6 6 6 2 4 5 5 5 5 7 8
4 6 7 2 1 0 2 2 4 3 3 4 3 5 3 2 3 4 3 5 2 2 4 3 2 3 3 3 1 5 7 7 7 7 8 8 7 7 6 6 6 3 3 3 2 6 2 6 5 5 6 7 7 7
3 5 2 1 2 4 3 4 1 3 3 3 2 4 3 4 4 2 5 2 2 3 3 4 3 2 1 4 5 6 9 8 8 9 8 6 7 6 5 5 4 4 5 4 4 4 5 6 6 5 6 7 6 7
6 2 2 3 3 3 1 3 3 3 3 2 2 3 2 2 3 3 2 3 4 5 4 5 5 3 4 7 10 9 8 9 8 8 7 5 6 6 5 5 4 4 4 4 4 4 5 2 3 6 6 7 8 8
4 4 4 4 4 3 1 4 3 2 2 1 2 4 2 3 2 1 1 0 2 3 3 8 5 4 6 8 7 8 7 7 8 7 5 7 6 6 5 5 5 5 5 4 4 4 4 5 3 6 7 8 9 9
3 4 3 3 4 5 6 5 5 3 3 5 3 3 2 3 2 2 1 2 2 3 1 3 5 3 3 6 6 7 5 6 7 7 6 5 6 6 5 4 4 5 2 1 4 4 4 5 5 7 7 8 10 11
4 5 5 6 4 5 5 4 6 6 4 3 4 2 2 2 2 3 2 3 3 3 1 4 6 6 5 5 6 6 6 6 5 6 5 6 5 5 5 5 5 5 3 4 3 3 5 6 6 8 8 8 2 8
3 5 4 4 2 2 3 3 2 2 3 3 0 3 2 3 3 3 1 3 4 4 4 2 2 5 7 7 6 5 3 4 6 6 4 5 6 6 3 2 6 7 5 5 5 6 6 6 7 7 8 8 8 9
3 3 4 6 3 3 2 3 3 1 1 2 1 2 2 4 3 2 2 3 6 9 4 6 7 7 7 7 7 6 7 9 9 9 8 8 7 7 9 9 10 17 10 9 8 8 8 7 7 8 8 8 8 9
3 1 2 4 3 4 1 2 3 3 5 2 1 2 4 4 3 3 3 4 5 7 5 6 7 7 8 8 7 6 6 6 9 11 10 7 6 6 6 6 5 5 5 7 6 6 7 6 7 7 8 8 8 9
4 4 1 3 1 1 3 3 2 2 3 2 3 5 5 3 3 4 4 3 3 6 7 7 4 6 7 8 8 9 8 8 9 7 5 5 6 5 5 4 4 4 4 4 5 5 5 5 4 3 6 8 8 8
4 2 2 2 3 2 3 3 3 2 2 4 5 6 6 4 2 4 6 4 7 4 4 5 6 7 7 6 5 7 8 7 9 9 6 6 6 6 5 5 5 5 5 6 6 7 8 7 8 8 9 10 10 10
2 3 4 4 3 2 3 1 2 2 1 3 3 3 3 2 4 3 6 7 6 7 5 7 8 8 7 8 9 9 8 8 8 8 9 7 7 5 5 5 5 5 6 7 7 8 10 9 8 8 8 10 11 12
2 2 3 4 4 5 3 4 2 3 3 3 3 2 3 3 4 3 2 6 4 6 6 7 8 9 11 11 11 10 11 11 14 13 14 15 14 11 6 6 6 6 6 6 6 7 9 9 8 8 9 9 10 11
Wind_Direction
297 293 294 292 292 288 289 290 298 303 308 307 308 311 302 265 193 194 305 237 273 286 300 315 266 233 254 251 260 53 241 43 146 230 246 260 282 264 253 154 177 197 198 216 231 244 246 87 271 311 358 334 333 325
292 287 288 289 282 283 285 290 291 295 300 302 305 308 315 281 194 187 238 22 356 271 299 318 282 266 251 253 242 240 18 183 117 249 285 296 270 274 275 231 179 232 224 246 221 233 115 269 304 345 317 321 330 324
292 290 286 285 284 278 271 274 282 286 297 301 295 300 310 305 193 177 164 133 142 278 273 243 273 187 194 209 208 238 222 236 232 93 321 281 275 297 262 274 242 242 235 241 296 16 92 210 342 288 334 330 325 323
291 282 280 282 285 284 270 266 267 278 287 292 295 293 300 305 195 173 149 155 250 83 276 338 142 186 179 168 188 221 252 176 82 90 271 244 260 286 280 292 292 300 199 262 269 278 334 71 41 346 330 325 324 330
291 290 286 285 282 282 280 272 269 278 291 285 293 288 292 312 200 146 118 183 242 272 300 307 302 266 226 237 232 197 235 205 149 241 234 259 274 268 268 276 258 274 269 284 304 1 314 324 354 336 333 330 332 332
288 290 290 286 283 281 279 279 277 279 285 287 288 300 298 316 133 108 220 196 182 172 270 289 76 227 156 171 215 191 171 128 200 239 267 261 258 264 283 263 257 282 12 13 326 316 324 301 297 355 328 331 337 326
288 284 285 287 287 286 282 279 278 276 281 279 294 284 297 195 148 203 261 85 146 169 235 267 279 130 127 77 77 86 132 155 204 238 236 243 246 264 273 267 280 336 101 285 338 311 303 353 341 324 330 335 334 331
302 300 279 279 278 280 283 278 275 273 282 294 287 279 306 136 107 139 66 128 152 116 275 273 269 184 178 139 169 149 159 180 195 247 225 250 255 234 253 253 119 93 75 266 300 310 312 321 315 333 342 344 341 343
297 302 296 275 274 268 274 279 276 279 287 295 283 121 117 178 151 117 147 128 39 313 238 211 248 236 177 100 104 185 173 182 198 221 225 228 251 229 257 294 193 118 19 335 325 311 328 340 335 349 348 352 349 345
292 294 297 280 271 270 263 273 278 280 287 251 167 164 178 180 124 131 120 144 191 198 230 257 239 249 306 174 169 222 202 210 211 213 136 217 252 251 178 64 84 95 9 349 335 348 349 340 347 349 357 358 354 344
294 294 295 278 270 270 257 266 280 294 217 191 136 88 50 162 104 181 153 211 168 227 201 223 238 236 244 262 121 210 267 306 238 165 213 206 247 157 144 124 110 55 5 356 349 338 344 345 345 350 359 359 357 348
297 302 294 277 283 276 245 262 279 269 115 119 104 67 76 217 217 185 196 185 220 246 169 213 178 204 252 312 237 187 257 199 254 172 221 211 124 127 146 155 135 27 8 358 7 1 14 352 0 5 10 5 2 356
299 303 290 272 272 288 231 245 291 125 112 64 84 146 197 178 200 214 189 197 186 216 192 157 148 156 167 221 222 244 233 233 223 212 227 68 134 147 139 150 115 49 71 40 32 15 30 2 22 27 19 16 15 4
298 299 272 251 257 267 238 248 162 139 111 170 184 174 231 173 229 214 336 42 47 118 152 123 122 187 152 185 229 239 218 224 222 220 164 126 133 143 145 121 159 101 73 65 65 34 38 22 28 43 34 22 18 7
297 307 271 270 248 226 217 194 150 102 147 205 234 227 211 253 119 103 85 49 102 143 131 202 186 193 168 232 210 240 203 226 221 40 109 115 125 150 127 121 114 113 91 80 56 48 45 32 44 53 39 24 19 11
304 304 235 210 195 177 162 131 77 75 179 252 238 255 220 231 125 199 215 239 151 193 169 206 219 210 199 221 215 208 221 183 71 111 99 125 139 121 122 112 96 82 79 71 60 58 58 46 37 45 39 28 20 10
304 258 146 170 158 157 137 105 113 179 210 223 233 245 272 269 218 202 224 82 118 166 197 204 230 228 173 230 221 188 76 106 137 100 111 122 125 129 128 120 116 101 89 77 72 64 58 54 45 36 33 16 28 16
252 225 174 170 132 104 77 60 104 199 232 220 247 211 206 267 282 135 115 107 178 177 207 231 277 238 216 277 133 130 135 93 97 105 122 119 126 129 131 120 118 105 95 89 80 81 57 43 39 33 22 6 23 21
322 202 168 145 126 97 131 151 187 242 232 244 242 266 270 286 267 216 153 150 184 168 283 255 250 234 158 232 57 103 131 129 122 118 118 128 137 121 114 114 109 105 92 74 49 61 88 60 47 27 16 6 17 27
265 202 167 140 82 104 143 143 253 260 253 243 232 242 225 248 227 174 188 146 160 188 225 217 246 4 150 342 88 220 128 120 129 138 139 141 133 139 144 157 105 125 148 153 124 287 104 77 50 35 35 24 3 17
177 146 123 81 109 262 286 193 203 241 291 281 2 325 284 287 254 193 158 117 169 224 254 253 179 152 53 23 20 104 123 133 148 146 146 145 162 140 140 125 184 111 115 89 50 125 225 45 13 28 19 22 354 28
87 117 111 117 200 177 239 230 278 331 263 274 218 212 238 209 219 185 134 153 219 217 250 283 197 158 34 108 132 138 123 136 122 110 112 140 141 141 138 128 132 103 70 50 55 50 57 51 358 3 23 358 356 18
110 76 145 155 213 214 235 193 220 204 246 253 250 213 228 201 105 174 165 207 225 236 201 245 150 120 138 106 107 114 124 126 137 136 155 150 119 112 114 109 99 88 98 72 29 40 57 3 58 350 14 4 3 357
145 178 198 190 214 161 209 206 198 182 286 263 224 264 180 97 92 168 272 169 286 315 203 176 176 152 128 147 149 137 156 141 127 155 148 133 132 135 124 107 91 69 50 37 50 31 25 35 329 14 16 10 9 352
188 174 196 188 221 199 204 185 190 176 247 232 225 249 113 102 183 191 107 27 14 67 112 188 178 197 155 142 151 149 155 152 150 140 153 154 131 130 126 121 98 71 27 117 66 14 35 22 21 11 4 15 7 345
226 178 203 198 186 227 209 204 200 208 171 246 191 192 113 178 203 90 65 339 3 16 170 175 167 215 216 151 135 144 178 146 172 150 155 130 148 164 145 158 155 124 31 19 54 34 20 14 18 1 352 2 165 338
200 215 199 232 235 192 255 253 208 195 201 221 359 124 165 210 99 74 48 14 323 309 317 33 185 146 100 93 98 116 142 138 145 120 122 94 71 49 53 62 92 83 74 47 46 26 14 6 359 1 350 344 353 1
267 190 194 197 181 239 354 334 232 216 6 92 131 62 41 19 76 10 354 335 301 301 29 40 54 83 104 111 115 113 100 95 100 103 96 84 75 66 66 69 67 61 60 31 17 36 11 9 1 351 352 341 350 3
211 238 132 171 216 224 127 85 0 30 351 21 63 90 88 64 21 342 335 311 301 276 132 106 94 97 92 85 85 109 134 152 148 157 145 131 127 106 114 124 130 106 112 115 74 48 39 16 9 0 352 342 15 356
194 190 193 137 158 75 56 353 61 52 25 63 113 132 105 87 20 342 328 119 34 22 31 46 59 101 107 105 95 78 53 42 48 67 76 104 98 86 96 91 77 64 40 9 2 110 173 253 186 284 4 4 28 347
114 91 99 81 86 73 85 79 79 67 33 22 59 99 105 123 131 33 7 3 116 113 109 99 80 78 92 111 125 107 83 62 68 81 95 99 96 84 69 56 44 38 23 19 15 25 7 6 33 17 14 14 17 3
123 188 150 131 125 141 185 165 110 93 144 114 104 121 161 144 87 59 2 333 100 105 114 121 115 111 102 87 86 88 79 84 74 70 82 81 78 76 70 65 72 58 49 42 43 39 27 28 28 30 19 15 9 7
95 83 104 124 143 172 180 176 128 124 120 119 110 85 54 48 87 96 360 341 47 97 96 96 93 90 92 91 93 88 80 81 70 60 57 49 35 15 45 51 45 32 51 58 73 66 51 39 38 28 24 15 9 6